Skip Page Navigation
NASA JPL Caltech
NASA Logo - Jet Propulsion Laboratory + View the NASA Portal
+ Center for Near-Earth Object Studies
JPL Home Earth Solar System Stars & Galaxies Technology
JPL Solar System Dynamics
BODIES ORBITS EPHEMERIDES TOOLS PHYSICAL DATA DISCOVERY FAQ SITE MAP
JPL Small-Body Database Browser
Search: [ help ]  
15183 (3074 T-1)
Classification: Main-belt Asteroid          SPK-ID: 2015183
Ephemeris | Orbit Diagram | Orbital Elements | Mission Design | Physical Parameters | Discovery Circumstances | Close-Approach Data ]

[ show orbit diagram ]
Orbital Elements at Epoch 2459000.5 (2020-May-31.0) TDB
Reference: JPL 18 (heliocentric ecliptic J2000)
 Element Value Uncertainty (1-sigma)   Units 
e .1400189873788598 9.6882e-08  
a 3.195359084846332 3.1461e-08 au
q 2.747948141474309 2.9577e-07 au
i 5.337423025094361 1.0184e-05 deg
node 359.3431773546129 5.2315e-05 deg
peri 157.1627720572379 5.8284e-05 deg
M 228.136702959451 2.7573e-05 deg
tp 2459764.686500339718
(2022-Jul-04.18650034)
0.00016687 TDB
period 2086.30563846512
5.71
3.0812e-05
8.436e-08
d
yr
n .1725538163549466 2.5484e-09 deg/d
Q 3.642770028218355 3.5866e-08 au
  Orbit Determination Parameters
   # obs. used (total)      560  
   data-arc span      17725 days (48.53 yr)  
   first obs. used      1971-03-25  
   last obs. used      2019-10-04  
   planetary ephem.      DE431  
   SB-pert. ephem.      SB431-N16  
   condition code      0  
   norm. resid. RMS      .59063  
   source      ORB  
   producer      Otto Matic  
   solution date      2019-Nov-07 03:54:32  

Additional Information
 Earth MOID = 1.75833 au 
 Jupiter MOID = 1.34441 au 
 T_jup = 3.174 
[ show covariance matrix ]

Ephemeris | Orbit Diagram | Orbital Elements | Mission Design | Physical Parameters | Discovery Circumstances | Close-Approach Data ]

Physical Parameter Table
Parameter Symbol Value Units Sigma Reference Notes
absolute magnitude H 14.5   n/a PDS3 (MPO 118)  
diameter diameter 5.513 km 0.112 urn:nasa:pds:neowise_diameters_albedos::2.0[mainbelt] (http://adsabs.harvard.edu/abs/2011ApJ...741...68M)  
geometric albedo albedo 0.092   0.012 urn:nasa:pds:neowise_diameters_albedos::2.0[mainbelt] (http://adsabs.harvard.edu/abs/2011ApJ...741...68M)  

15183 (3074 T-1)          Discovered 1971-Mar-26 by van Houten, C. J., van Houten-Groeneveld, I., Gehrels, T. at Palomar
Reference: 20000523/Numbers.arcLast Updated: 2004-04-19

[ show close-approach data ]
Alternate Designations
 3074 T-1 = 1997 WV23 
Ephemeris | Orbit Diagram | Orbital Elements | Mission Design | Physical Parameters | Discovery Circumstances | Close-Approach Data ]
ABOUT SSD CREDITS/AWARDS PRIVACY/COPYRIGHT GLOSSARY LINKS
FirstGov 2020-Oct-30 23:50 UT
(server date/time)  
NASA Home Page
Site Manager:   Ryan S. Park
Webmaster  Alan B. Chamberlin